Theta_e
340 341 340 341 342 343 344 344 343 343 342 338 337 338 339 340 342 342 344 347 346 346 346 347 346 346 346 346 346 348 349 350 350 350 349 349 349 349 349 349 349 350 353 350 348 351 352 351 351 351 352 353 351 350 351 352 353 354 354 357 352 349 348 349 351 352 349 348 350 349 349 350 349 351 350 348 347 350 351 351 352 353 355 354 356
338 338 339 341 342 342 344 346 351 343 342 340 336 336 337 338 339 341 342 344 346 346 346 346 347 346 345 345 345 347 347 348 348 350 350 350 350 349 349 349 348 348 351 350 351 348 348 350 351 351 351 352 353 353 353 358 357 355 352 351 352 349 348 348 348 349 345 344 343 344 346 349 349 348 347 347 347 347 348 349 352 351 351 354 356
335 337 339 341 342 345 345 348 346 343 343 343 339 337 336 336 338 340 341 342 343 346 346 345 346 347 346 345 345 345 348 349 350 351 352 351 350 350 350 349 348 347 347 350 348 348 347 348 348 349 351 353 353 353 354 355 355 354 353 351 350 349 350 351 351 350 345 346 348 343 339 337 345 344 345 345 345 345 346 346 348 348 348 351 355
333 335 337 340 342 343 345 345 346 343 345 342 340 335 335 337 336 337 339 340 342 344 349 346 347 347 347 346 347 344 344 352 349 350 350 349 349 348 347 347 347 347 347 346 348 349 351 351 349 349 349 353 353 352 353 354 355 354 353 353 351 348 346 347 353 351 350 346 340 340 340 335 333 339 340 341 342 343 344 345 346 346 348 348 352
333 335 337 340 341 343 344 345 347 345 342 342 343 341 337 335 335 336 336 337 339 344 346 347 348 347 346 349 352 352 350 350 351 348 348 349 350 348 347 347 346 344 345 346 348 352 353 351 350 349 350 353 355 354 353 353 354 355 355 353 351 348 346 346 349 351 349 351 347 341 338 335 334 337 338 344 343 340 341 342 344 346 346 346 348
334 335 336 339 341 343 345 347 347 346 344 341 343 345 345 342 339 337 336 336 336 339 343 346 346 344 343 341 340 340 339 341 341 341 344 346 347 350 351 351 352 350 349 348 350 357 353 353 352 351 351 354 357 355 355 355 355 354 355 354 351 351 349 347 344 352 350 351 350 348 346 338 337 340 338 337 347 344 341 340 340 343 345 346 348
336 337 338 340 340 341 343 344 345 345 346 346 344 344 346 348 347 344 341 339 338 338 342 347 343 343 342 341 341 340 339 340 342 344 343 346 349 349 350 353 355 355 356 355 355 358 355 354 353 353 354 354 357 357 356 355 355 355 357 354 352 352 350 346 345 345 350 349 349 348 347 347 345 342 338 338 336 344 342 341 341 340 339 340 343
336 337 338 339 340 341 341 343 344 346 348 348 347 344 345 347 349 349 349 350 346 342 340 345 342 342 342 341 342 340 340 340 342 343 345 349 349 349 350 353 355 357 357 353 356 357 357 355 354 354 354 354 357 355 356 357 356 356 358 356 354 353 351 348 348 347 344 345 349 347 347 347 347 345 345 341 340 337 340 344 343 341 342 341 340
338 337 338 339 340 340 341 342 345 347 348 348 348 346 344 345 349 350 349 352 353 350 346 345 347 343 342 341 340 343 342 342 345 349 349 351 349 350 350 352 354 356 353 350 351 355 359 356 355 355 354 355 358 357 356 355 355 355 355 355 354 352 352 351 350 348 347 346 348 348 347 346 347 346 345 345 341 338 337 338 340 342 343 343 346
338 339 339 339 340 341 342 344 345 346 348 350 349 349 346 345 347 349 348 349 353 352 352 348 347 349 343 343 341 341 344 345 347 346 348 350 350 351 353 353 354 355 352 343 345 347 353 356 356 355 354 355 358 355 354 353 353 354 355 355 355 353 352 352 350 350 349 348 347 346 345 346 345 344 343 342 341 341 337 339 341 340 338 343 346
337 338 339 339 340 340 340 340 342 343 346 348 348 348 348 346 345 347 348 349 352 353 352 349 349 348 346 344 344 343 343 344 345 347 349 350 350 351 352 353 355 355 358 356 350 352 353 355 354 353 353 355 356 355 353 353 352 352 354 355 355 354 352 351 351 352 351 350 347 347 346 344 344 342 344 343 341 339 336 336 338 338 337 337 343
336 337 337 338 337 337 340 340 340 341 343 344 345 346 347 347 346 345 346 346 349 352 354 353 351 350 350 348 346 346 346 347 347 347 349 349 350 351 353 353 353 354 355 355 356 356 355 354 356 356 355 355 354 355 354 353 354 353 353 355 355 354 354 353 350 350 350 349 349 348 347 346 346 345 346 346 344 343 341 340 339 342 341 340 342
335 335 336 335 335 336 337 340 341 342 342 342 344 344 345 345 345 345 345 345 347 350 351 353 354 353 353 353 352 352 351 350 350 350 351 351 351 351 352 352 353 353 354 353 354 355 356 355 355 354 353 355 356 355 355 354 354 353 354 354 354 353 353 352 350 349 349 348 348 349 349 348 347 348 348 347 346 346 345 341 343 343 341 342 345
334 334 334 334 335 336 337 339 340 340 341 342 343 348 345 345 344 344 343 342 345 346 350 351 351 352 353 354 354 355 354 353 353 352 353 354 354 353 354 354 354 353 354 354 355 356 357 357 357 356 356 356 356 354 353 353 353 353 354 353 351 353 354 352 352 351 351 350 350 349 349 348 349 349 349 348 346 345 343 342 343 343 341 339 346
332 333 334 335 335 336 337 338 339 340 341 341 343 345 343 341 342 347 345 342 340 342 345 349 351 354 354 354 355 356 356 356 356 356 356 356 356 355 355 355 354 355 355 356 357 357 357 357 357 357 357 357 357 357 355 354 352 350 348 351 352 355 354 354 351 349 349 349 350 349 349 349 349 350 350 348 348 347 345 344 343 340 339 340 340
331 333 334 335 336 337 338 338 339 340 341 341 340 340 339 339 338 340 342 346 348 350 350 352 352 355 355 355 356 357 359 358 356 356 356 356 355 355 354 354 355 355 355 356 357 358 357 357 357 357 358 357 358 358 357 356 355 347 345 348 348 352 351 349 348 348 349 350 350 350 349 348 350 350 350 349 349 349 348 348 346 344 341 338 339
331 333 334 335 336 337 338 338 338 339 340 338 337 338 339 341 341 342 343 344 346 348 346 348 347 346 346 348 349 350 350 350 350 351 353 353 354 353 353 354 354 354 355 357 357 358 358 358 357 357 357 358 358 358 359 358 356 346 345 345 346 350 352 349 348 348 350 350 349 349 349 349 350 351 350 350 351 351 349 349 348 345 344 340 339
332 333 334 336 336 337 335 334 335 336 336 336 338 339 340 341 341 340 341 341 343 345 345 346 348 346 345 346 346 347 346 346 347 348 348 349 349 350 352 352 352 353 355 355 357 356 356 358 356 357 357 357 357 357 357 357 358 349 346 346 348 350 350 349 349 349 349 350 350 349 350 349 351 350 350 351 352 351 349 348 348 347 347 343 342
330 331 333 333 332 331 331 332 333 335 338 338 339 340 340 339 340 339 339 339 341 342 344 346 345 344 345 346 345 345 346 346 347 348 348 348 348 349 349 350 351 352 355 355 356 356 356 355 355 354 355 355 355 356 357 357 358 351 348 347 347 347 348 347 349 349 349 350 350 349 350 349 351 350 351 351 352 353 350 350 349 349 348 347 344
329 330 331 331 329 330 330 331 333 335 337 339 340 340 339 339 343 339 340 340 340 341 344 343 342 343 343 344 344 345 345 345 345 346 346 346 347 348 348 349 350 353 354 354 354 354 355 354 354 354 355 355 355 355 356 356 357 354 351 349 349 348 347 347 348 349 349 349 350 349 349 349 350 351 351 352 353 354 352 350 350 348 348 347 347
327 328 329 328 328 329 331 332 334 335 339 339 339 339 339 339 340 342 338 338 338 339 339 339 339 339 342 341 342 342 342 343 344 345 345 346 347 349 349 350 352 352 353 353 352 353 353 354 354 355 354 354 354 355 355 357 354 352 350 349 349 349 348 348 349 348 349 350 350 350 350 350 351 351 351 352 352 352 353 352 352 350 349 349 347
326 327 328 327 329 330 332 335 335 336 337 336 337 338 337 337 337 338 337 335 335 335 335 336 337 337 338 339 340 341 341 341 342 343 345 345 346 347 349 351 350 350 351 351 351 351 353 353 353 354 354 354 354 355 355 356 355 354 352 350 349 349 349 348 349 349 350 350 351 350 350 350 352 350 351 351 351 352 352 351 350 350 348 348 348
325 326 327 328 329 331 333 335 334 335 336 336 336 337 336 336 336 335 334 334 334 335 335 336 336 337 338 339 340 340 341 341 341 341 342 343 345 346 348 348 348 348 350 350 350 351 352 352 353 353 353 352 353 353 354 354 353 352 352 351 351 350 350 349 348 349 349 350 349 350 350 350 351 350 350 351 353 352 352 350 350 350 349 349 349
325 326 328 329 329 331 332 333 333 333 333 333 334 335 334 333 333 333 333 334 335 335 337 337 337 338 339 340 340 340 340 340 340 341 341 342 343 344 347 346 347 347 347 349 350 350 351 352 352 352 352 352 352 353 353 353 352 352 351 351 351 351 351 350 349 349 349 349 349 349 350 351 351 350 350 351 352 352 351 350 350 351 351 350 349
324 326 327 328 329 329 331 332 332 332 332 332 332 332 332 332 332 333 333 335 335 337 336 337 337 338 338 338 338 339 339 339 339 339 340 342 343 344 345 345 345 345 346 347 348 350 350 350 350 350 350 351 351 351 351 351 352 352 351 351 351 351 351 351 350 350 352 350 349 349 350 351 351 349 350 350 351 351 351 350 350 350 351 351 351
324 326 327 327 329 330 330 331 331 331 331 332 331 332 332 332 332 333 334 335 336 337 337 337 337 337 337 337 337 337 337 337 338 338 339 341 342 343 343 343 345 344 345 346 346 347 348 348 349 350 350 350 350 350 350 350 351 351 351 351 351 351 351 351 351 351 350 350 350 350 350 351 351 349 349 350 351 351 351 350 349 350 350 352 350
325 326 327 328 328 329 330 330 330 330 331 331 331 331 331 332 332 334 335 336 336 337 336 336 336 336 335 336 336 336 336 336 337 338 340 341 341 342 342 342 344 345 345 345 346 347 348 349 349 350 349 349 349 349 349 349 350 351 351 350 351 350 350 350 350 351 351 350 350 350 350 351 350 350 350 350 351 350 350 350 350 350 350 350 349
326 326 326 327 328 328 329 329 330 330 331 331 332 332 332 332 333 334 335 336 337 337 336 336 336 335 335 335 335 336 336 336 338 339 339 340 341 341 342 343 345 344 345 345 346 346 347 348 348 349 349 349 348 348 348 348 349 349 350 350 350 350 350 350 350 350 351 350 350 350 350 351 351 351 352 352 352 350 350 350 350 350 350 349 349
325 326 326 326 327 327 328 328 329 330 331 331 332 332 332 333 334 335 336 336 337 336 335 335 335 334 334 335 335 336 336 338 339 339 339 339 340 340 341 342 343 344 346 346 346 346 346 346 347 348 347 347 346 346 347 347 348 348 349 348 349 349 349 349 349 350 350 351 350 350 350 351 353 356 358 357 356 355 351 349 350 350 349 349 349
325 326 326 326 327 327 327 327 327 328 329 330 331 331 332 332 333 334 335 336 336 335 335 334 334 334 334 334 334 335 336 337 337 337 338 338 338 339 340 340 341 342 343 345 345 346 346 346 345 346 346 345 345 345 347 348 350 349 348 348 349 349 348 348 348 347 348 350 350 351 352 355 355 356 355 356 356 358 358 353 351 350 349 349 348
326 326 326 327 326 326 326 326 326 327 328 329 330 331 332 332 333 334 334 336 336 334 333 332 332 332 333 333 334 334 336 336 336 336 337 337 338 339 339 340 340 341 342 343 345 344 344 345 344 343 343 342 343 344 345 337 337 339 348 348 348 348 348 348 347 347 346 348 349 350 350 353 355 355 353 354 357 357 357 359 359 357 355 350 349
326 326 325 323 324 323 322 323 324 325 327 328 330 331 331 331 332 332 333 334 332 331 330 330 331 332 332 333 334 335 335 335 335 335 336 337 338 338 338 339 340 341 342 343 342 342 343 342 342 341 340 341 341 344 335 335 336 335 341 344 345 345 346 347 347 347 347 348 348 349 350 350 351 351 352 353 354 358 357 358 359 360 358 358 356
322 322 324 322 322 322 323 323 324 325 326 327 329 330 330 331 331 331 331 330 329 329 329 329 331 332 333 334 334 333 333 334 335 336 337 338 337 338 338 338 339 340 341 340 340 340 340 340 339 339 339 340 340 337 333 333 333 333 334 342 343 344 344 345 346 346 347 347 348 348 348 350 350 354 353 352 353 354 356 347 347 353 356 356 346
318 320 321 321 322 323 324 325 325 326 328 329 332 330 330 330 331 331 329 329 329 329 330 331 332 332 332 333 333 333 334 335 336 336 337 337 337 337 338 339 340 340 339 339 339 339 339 339 339 339 339 340 340 338 332 331 330 331 332 335 341 342 342 343 344 345 346 347 348 348 348 348 350 351 352 352 353 354 355 355 353 352 353 355 358
319 318 319 321 322 323 323 324 325 328 330 327 326 327 327 327 328 328 329 329 330 330 330 330 331 332 333 333 333 334 334 335 336 336 337 336 337 337 338 338 339 338 338 338 338 338 339 340 340 340 339 339 340 335 331 329 328 327 329 334 339 341 341 343 344 345 346 347 348 349 349 349 350 350 351 352 352 352 352 351 352 349 347 348 351
318 319 321 322 323 323 323 323 330 329 327 327 327 327 327 328 328 329 329 329 329 329 330 331 332 333 333 334 334 334 335 335 335 336 336 336 336 337 337 338 339 339 339 339 339 339 339 339 340 340 339 338 340 332 330 329 327 327 329 337 340 340 341 341 343 345 346 347 348 349 349 349 349 350 349 342 346 353 350 349 347 342 341 344 348
321 321 320 322 321 322 322 328 327 325 324 325 326 327 329 329 330 331 330 330 330 330 331 332 334 333 334 335 335 334 334 335 335 335 335 336 336 336 337 338 337 337 337 337 338 338 339 339 339 340 339 339 340 335 328 326 325 325 329 337 339 340 340 341 342 344 346 347 348 349 350 350 350 350 346 337 338 348 348 347 343 341 341 342 346
321 322 323 324 324 324 327 330 326 329 329 328 328 329 330 330 330 330 330 330 331 331 332 333 333 334 334 335 335 335 335 335 335 335 335 336 336 337 337 338 337 336 336 337 338 338 339 339 339 339 339 339 340 338 329 325 323 324 331 337 339 339 339 340 341 344 346 347 348 350 351 351 350 350 340 335 334 347 347 346 344 342 340 342 346
323 322 324 327 329 332 335 330 327 328 329 329 329 329 329 330 331 331 331 330 330 331 332 332 333 334 334 335 335 335 335 335 335 335 335 335 336 336 337 338 337 337 337 338 339 338 338 339 339 339 341 341 339 338 328 325 324 323 329 336 338 338 339 339 341 342 345 345 346 349 351 350 350 347 335 333 331 349 346 344 343 343 341 342 346
327 324 324 330 334 330 328 327 327 328 329 330 330 330 331 332 332 332 331 331 331 332 333 334 334 334 334 335 335 336 336 336 335 335 336 336 337 337 336 337 337 337 337 337 338 338 337 337 339 339 339 339 339 339 338 327 323 322 323 335 339 338 338 339 340 341 341 342 346 347 346 338 333 332 329 327 327 332 346 342 342 341 341 341 347
329 330 339 329 328 329 328 328 329 329 330 330 331 329 330 331 331 330 330 331 332 333 333 333 334 334 334 334 335 335 335 335 336 335 336 336 337 336 336 336 335 336 336 336 336 336 336 337 338 338 338 338 338 339 339 328 323 321 322 326 336 338 339 339 339 341 341 342 343 346 347 341 330 326 325 324 322 323 338 344 341 340 342 344 348
333 337 337 329 328 328 328 328 329 329 331 331 330 329 330 330 329 329 330 332 333 333 333 333 333 333 333 334 334 335 336 335 336 336 335 335 335 336 335 335 335 335 335 335 335 336 336 335 336 337 337 337 340 342 340 332 325 320 319 320 332 337 339 339 339 340 341 342 344 345 346 341 329 325 323 321 320 320 324 342 342 330 330 332 344
326 326 331 335 330 329 329 328 329 329 329 330 329 328 329 330 328 330 331 332 333 333 333 333 332 333 333 334 335 335 335 335 335 335 334 333 333 333 334 334 334 334 334 334 334 334 334 333 334 335 336 337 338 340 335 337 329 321 318 318 320 330 330 337 338 337 339 342 345 346 347 341 327 321 319 319 319 318 324 333 327 324 326 328 339
323 325 327 334 330 329 328 328 329 329 329 329 328 328 329 329 329 331 332 333 333 332 332 332 332 333 333 333 334 334 333 333 333 333 332 332 331 332 333 333 334 333 333 332 332 332 332 331 331 332 334 336 338 339 337 333 334 325 319 317 317 318 322 334 339 338 340 343 344 345 344 329 322 316 316 318 319 321 328 321 320 324 326 335 340
323 324 328 328 327 327 327 327 328 327 328 328 328 327 328 327 329 331 331 331 331 331 331 331 331 331 331 332 332 331 331 331 331 331 330 330 330 331 330 332 333 332 332 331 331 332 331 330 331 331 332 333 335 336 338 337 332 330 322 319 318 317 317 317 329 337 341 342 336 327 324 321 320 316 316 318 320 322 319 319 320 323 335 336 334
323 324 325 328 327 325 325 324 326 327 327 329 328 327 326 327 329 330 331 330 330 330 330 331 331 331 330 330 329 328 329 329 330 331 331 331 330 330 329 329 330 331 332 331 331 331 331 331 330 330 330 331 331 332 335 339 340 340 335 324 320 320 331 327 330 331 334 331 328 324 321 320 320 322 326 329 330 330 322 324 327 333 331 331 330
322 323 328 326 325 323 324 325 325 326 326 327 327 327 328 328 329 329 329 329 329 330 330 330 329 328 328 327 326 325 326 328 329 330 330 329 329 329 328 330 330 331 331 331 331 332 330 329 328 328 328 328 327 328 331 336 340 340 340 340 339 331 332 333 332 331 331 331 333 333 332 328 327 325 326 323 324 325 329 330 328 326 326 325 324
321 322 326 323 322 321 323 324 324 325 326 326 326 326 327 327 327 328 328 327 328 327 327 327 327 326 326 325 325 328 328 326 327 327 326 326 327 328 328 328 330 330 330 330 330 330 329 327 324 322 321 321 322 325 328 333 337 339 340 341 340 338 336 333 331 332 333 334 333 328 320 327 327 326 328 328 326 325 324 323 323 323 322 322 322
321 322 325 321 322 323 323 323 324 325 325 324 324 325 326 326 326 326 326 325 325 325 324 323 323 323 322 325 325 325 325 325 325 325 326 326 326 327 328 330 333 334 332 330 329 326 323 318 315 314 314 315 318 320 325 321 320 313 317 328 338 337 337 335 334 324 331 331 328 328 326 325 325 324 324 323 322 322 321 321 320 320 319 318 317
321 322 321 321 323 323 323 323 324 324 324 323 323 323 324 325 325 324 324 323 323 322 321 321 322 322 322 323 324 324 325 326 325 325 325 326 328 322 323 330 331 333 321 309 311 316 312 310 308 310 312 312 313 318 318 310 306 305 305 306 313 318 319 329 324 317 328 328 327 326 325 324 323 323 322 321 321 320 319 319 319 319 318 317 316
322 321 320 321 321 324 323 323 323 323 323 323 322 322 322 322 322 323 322 322 321 321 321 321 322 322 323 324 324 324 325 325 325 325 326 326 327 328 312 311 317 326 314 300 299 302 303 307 308 306 308 309 310 307 304 303 300 299 300 301 303 304 309 312 311 323 329 328 326 325 325 325 323 322 322 321 320 319 319 317 316 316 316 316 315
Wind_Speed
2 1 5 7 6 6 6 6 6 6 7 9 11 12 12 12 10 12 11 10 8 8 8 8 8 7 6 8 9 9 9 9 8 8 8 9 8 8 7 7 7 7 7 6 7 7 7 7 7 7 6 5 6 8 8 7 6 6 4 3 4 5 5 4 4 3 3 5 5 5 5 4 5 6 7 5 6 5 4 5 5 5 6 7 7
4 6 4 2 6 7 6 6 6 8 8 8 10 12 12 13 12 13 10 9 10 10 9 9 9 10 10 10 10 10 8 8 9 8 8 7 7 7 7 7 7 7 7 6 6 7 7 7 7 7 6 6 7 7 7 7 6 5 4 4 3 5 5 3 2 3 2 4 5 5 4 5 6 5 6 6 6 6 6 6 5 6 7 7 6
3 5 4 4 3 3 5 6 6 9 10 11 11 11 11 12 12 11 10 10 10 10 8 9 9 9 9 8 8 7 6 6 7 6 5 7 8 8 7 7 7 7 8 6 6 7 7 3 7 8 8 7 6 8 7 8 6 7 6 6 5 3 4 4 4 5 4 1 1 2 4 6 5 4 3 5 6 6 5 6 7 7 9 7 6
7 6 6 4 4 3 3 3 5 4 4 6 6 8 8 9 9 10 10 10 9 10 10 11 10 6 5 5 3 5 5 2 4 5 6 6 9 8 7 7 8 8 8 7 6 4 5 5 5 9 10 8 8 8 7 7 6 6 6 6 5 5 3 4 4 6 5 4 5 5 2 1 6 4 3 5 3 5 6 7 6 7 8 6 4
7 6 4 3 3 4 5 4 1 3 3 4 5 6 6 9 9 9 9 9 9 9 11 8 5 5 5 2 1 2 2 3 3 6 7 8 8 7 10 8 7 8 7 7 6 4 8 9 9 8 8 7 5 7 7 7 7 6 7 6 7 6 6 4 4 5 6 6 6 1 2 2 4 4 3 6 2 2 4 6 6 7 8 6 6
7 7 5 5 4 2 2 2 2 2 3 4 4 4 4 6 6 6 6 6 7 9 9 6 8 8 6 6 7 8 8 6 9 11 9 8 10 9 6 7 7 7 6 6 4 7 8 8 9 9 9 8 7 6 6 6 6 7 7 7 7 8 7 6 5 3 6 7 8 7 6 6 3 2 2 6 4 2 4 2 4 6 5 5 6
4 4 3 3 3 3 3 3 4 4 5 3 3 4 3 3 4 6 7 7 7 6 6 6 6 7 10 11 11 10 11 10 9 7 7 7 5 6 7 5 6 6 5 0 2 6 7 7 9 9 8 8 6 5 6 8 7 7 6 6 7 7 6 7 7 6 4 5 6 7 6 5 5 4 5 1 6 4 2 2 2 3 4 6 7
6 6 6 5 5 6 6 6 6 6 5 3 3 3 5 5 4 5 5 5 6 5 7 8 9 9 9 10 10 10 10 11 7 7 5 4 5 5 5 6 6 5 4 6 7 9 8 8 8 9 9 8 7 9 7 7 6 7 7 8 7 7 8 8 7 6 7 5 5 7 7 7 6 7 7 6 5 6 9 3 4 5 3 4 6
6 6 6 7 7 7 6 6 5 4 3 4 5 5 5 4 3 2 3 3 3 4 5 6 6 7 8 7 8 7 7 7 5 4 4 4 6 5 5 5 5 4 8 3 9 9 7 8 8 8 8 9 8 7 7 7 9 9 9 8 8 7 7 8 7 7 7 7 5 5 5 6 6 7 7 6 5 5 7 7 8 2 3 4 3
5 7 6 6 6 6 5 3 3 5 4 4 4 3 4 3 4 3 5 4 3 5 5 6 7 6 6 6 8 8 7 6 4 6 5 4 6 6 6 5 5 5 6 9 13 12 10 9 8 8 8 8 7 7 8 9 9 10 10 10 9 9 7 7 8 8 7 6 7 6 6 5 4 4 5 6 6 7 9 7 5 6 6 4 2
6 5 5 6 4 4 3 6 5 4 4 5 5 5 4 4 4 5 7 4 3 4 4 5 5 5 6 7 8 8 8 7 6 6 5 4 6 6 6 6 5 5 4 7 11 11 10 8 8 7 6 6 8 8 9 9 9 10 11 12 11 10 7 8 9 8 7 7 8 7 7 7 7 7 6 6 7 5 5 7 7 5 6 7 4
6 5 6 5 3 3 4 5 5 5 4 5 5 5 4 4 5 6 4 4 4 4 4 5 5 5 5 6 7 8 6 5 6 7 6 6 6 6 5 4 5 4 4 4 5 7 6 7 8 8 7 7 8 9 10 9 8 9 10 9 8 10 9 7 8 8 9 7 8 7 7 7 7 7 6 6 7 6 6 6 5 2 3 4 4
6 6 4 3 4 4 3 4 3 3 4 4 5 4 4 5 5 5 4 4 4 5 6 6 6 6 6 6 6 5 5 6 6 7 6 6 5 5 5 6 6 5 4 4 5 6 6 6 7 7 7 9 11 10 8 9 9 10 10 10 9 10 9 8 7 9 9 8 8 7 8 8 8 7 7 7 6 5 6 6 5 4 6 5 1
6 5 4 4 5 4 4 4 4 4 5 5 4 3 3 2 2 4 2 3 4 4 4 4 5 5 5 5 6 5 6 6 6 6 7 6 5 6 5 5 5 5 5 6 5 5 6 7 7 8 8 9 10 11 11 10 10 8 7 8 11 10 9 9 8 9 9 10 8 7 8 8 8 8 8 7 8 6 5 7 6 4 4 5 1
5 5 6 6 6 5 5 5 5 5 5 5 3 3 2 3 3 2 1 1 2 3 4 4 4 4 5 5 5 4 5 5 5 5 5 6 5 6 5 4 5 5 6 6 6 7 7 7 8 8 8 9 9 9 10 9 9 6 6 11 9 7 6 4 9 11 10 11 10 9 8 8 8 7 7 8 7 8 8 7 6 6 5 3 4
5 5 6 6 6 5 5 5 5 5 4 3 3 2 3 2 3 3 3 4 5 4 4 4 3 2 2 3 4 4 4 4 5 5 5 6 6 5 6 6 6 6 6 6 7 7 7 7 8 9 8 9 9 9 10 9 6 7 12 14 14 8 9 12 13 14 12 13 12 10 9 9 8 8 8 8 8 8 7 7 6 7 7 7 2
6 6 7 6 4 4 6 5 4 4 3 4 4 4 5 6 6 6 5 5 5 5 5 5 4 4 3 3 4 3 4 4 5 6 6 6 6 6 6 7 6 6 5 5 6 6 6 7 8 8 8 8 9 9 9 9 7 11 12 11 11 10 9 10 9 10 9 10 9 11 9 8 8 8 8 8 8 8 7 7 7 8 8 8 6
7 6 6 6 6 5 4 3 4 5 5 5 5 5 7 7 8 8 6 6 5 5 5 6 5 4 3 3 3 4 4 5 5 6 6 6 6 6 5 6 6 6 5 5 5 6 6 7 7 7 7 7 8 8 9 10 8 9 10 10 11 9 9 9 9 10 10 8 9 9 8 9 8 8 9 9 8 8 7 8 7 7 8 9 7
5 6 5 5 5 5 4 4 4 4 5 7 7 7 6 6 6 7 7 7 7 6 5 4 4 4 4 5 5 4 5 5 5 6 6 6 7 7 6 7 7 6 6 5 5 6 6 6 7 7 7 8 8 8 8 8 8 8 8 9 9 9 10 11 9 9 10 10 10 11 10 9 8 9 9 9 9 8 7 7 7 7 7 9 8
6 6 6 6 5 5 6 7 7 8 8 7 7 6 7 6 6 5 4 4 4 5 4 4 5 5 6 5 6 5 6 6 6 6 6 7 7 7 7 7 7 5 6 6 5 6 6 7 7 7 8 8 8 8 8 9 8 7 8 8 9 9 10 12 13 10 10 11 13 13 12 11 9 8 9 9 9 7 7 7 8 8 9 9 8
7 7 6 6 6 5 5 5 6 5 6 6 6 7 7 6 6 6 7 6 6 6 5 6 5 6 5 6 6 5 7 6 6 7 7 7 7 7 7 7 7 6 6 6 6 6 7 7 7 8 8 8 8 8 8 8 8 6 7 9 9 9 11 13 10 12 12 13 12 12 12 13 11 11 9 8 8 8 7 7 8 7 8 7 8
7 6 7 6 5 5 5 4 4 6 6 7 6 4 5 6 6 6 5 5 5 5 6 6 5 6 7 6 7 6 6 5 6 7 7 7 7 7 7 7 7 7 6 6 7 7 6 7 7 7 8 8 9 8 8 7 9 9 9 7 9 10 12 12 10 11 11 10 11 11 12 11 10 11 10 9 8 8 8 7 8 7 7 7 8
7 7 7 7 7 8 8 9 8 8 7 6 5 5 6 7 6 5 5 7 7 6 5 5 5 5 5 5 5 6 6 6 7 6 7 8 7 8 7 7 7 7 6 6 7 7 7 8 7 7 7 8 8 8 8 9 9 10 10 10 9 10 10 10 11 11 11 10 11 12 12 11 9 11 11 10 9 10 7 9 10 7 8 8 8
4 5 6 7 7 6 6 6 7 6 6 6 6 6 6 5 6 5 6 8 6 6 5 3 4 5 5 5 5 6 6 7 7 7 8 8 8 7 7 7 8 7 6 7 7 7 7 8 7 7 7 7 8 8 9 9 11 10 11 11 10 10 10 10 10 11 11 10 11 12 12 12 11 11 12 9 8 8 8 9 8 7 9 8 7
6 7 7 6 6 7 8 8 7 7 6 5 6 7 6 7 5 6 7 7 6 4 4 4 4 5 5 5 6 6 7 8 8 7 9 9 8 8 7 8 8 7 7 7 7 7 7 7 7 8 8 8 8 8 9 9 9 10 10 10 11 11 10 12 12 12 12 11 11 12 13 12 11 12 11 12 10 10 9 10 9 9 7 7 6
7 6 6 9 9 7 6 6 6 6 6 6 6 6 7 7 7 6 6 6 5 3 4 4 5 5 6 6 7 7 8 9 8 8 9 9 8 8 8 7 7 9 8 7 9 8 7 8 8 8 8 9 9 8 9 9 9 9 10 11 11 11 11 11 12 12 12 12 12 12 13 12 11 12 13 11 11 12 10 11 13 11 10 8 9
10 10 7 4 5 8 8 7 7 6 6 6 6 7 7 7 7 6 5 5 5 4 4 5 5 6 6 7 8 8 7 7 7 7 7 7 8 8 8 9 8 8 8 9 9 9 8 8 9 9 8 9 10 10 9 10 9 10 11 11 11 12 11 11 11 12 12 12 12 12 13 13 13 13 13 13 12 12 11 13 13 12 11 11 10
3 4 6 9 8 7 6 7 7 7 6 6 6 7 7 5 6 6 4 4 5 4 5 5 6 6 6 8 8 7 6 6 6 7 7 8 8 8 9 9 8 9 10 9 10 10 9 8 9 9 10 9 9 10 10 10 10 11 11 11 11 12 12 11 11 12 12 11 12 12 13 13 13 13 13 13 13 12 11 12 11 10 11 12 11
6 7 6 6 7 6 7 8 8 6 6 8 8 7 5 5 5 6 5 6 5 4 6 6 6 6 8 7 6 6 5 6 7 7 7 8 8 8 9 9 9 9 8 9 9 9 9 10 10 10 10 10 10 9 7 8 9 11 11 11 12 13 12 12 12 12 12 12 12 11 12 12 14 16 20 18 15 15 11 12 12 11 12 12 12
9 8 7 6 6 5 5 4 5 6 7 7 7 7 6 6 7 6 6 7 4 5 6 6 6 7 7 6 6 6 6 6 7 8 8 8 8 8 8 9 9 10 9 9 10 9 10 11 11 11 10 9 8 7 11 18 15 11 10 9 10 11 12 12 13 13 12 12 13 12 11 19 23 26 26 26 24 21 20 15 13 12 13 12 12
5 4 4 3 4 4 5 5 6 7 7 7 8 8 7 7 7 7 7 7 3 5 5 5 6 6 6 6 6 6 6 7 8 8 8 8 9 8 9 9 10 9 10 9 9 10 10 10 11 11 11 9 8 9 16 14 14 16 14 12 12 12 12 13 12 12 13 12 12 12 12 15 18 20 20 26 23 23 23 22 22 19 16 15 13
5 3 2 4 4 5 5 7 9 9 9 8 8 8 6 7 7 7 6 3 2 3 4 5 6 6 6 6 6 6 7 8 8 9 9 9 8 9 9 10 9 10 9 8 10 10 10 10 10 10 11 9 9 13 15 15 15 16 16 13 12 11 11 12 12 12 11 12 12 12 11 10 11 14 14 15 21 25 26 26 25 23 22 22 18
1 3 3 5 7 8 8 7 6 7 7 9 7 5 7 6 5 5 3 3 3 4 4 5 5 5 6 6 6 7 8 8 9 9 9 8 9 9 10 10 10 10 8 9 10 10 11 10 11 12 12 11 11 13 16 17 17 16 17 15 10 12 12 12 13 12 12 12 11 11 11 10 10 18 17 15 14 16 22 24 22 23 23 23 21
3 5 6 6 5 5 6 6 6 6 5 5 3 4 5 3 4 3 4 4 4 4 4 5 5 6 6 7 7 7 8 9 9 9 9 9 9 10 10 9 9 9 9 10 10 11 11 11 11 11 11 11 11 14 17 18 17 17 17 16 11 11 13 13 14 13 12 13 13 12 12 11 10 11 11 14 14 14 13 12 14 14 14 18 24
6 5 5 5 5 4 5 6 6 4 3 3 3 3 4 4 3 4 3 4 4 4 5 5 5 6 7 7 7 7 8 8 9 9 9 10 10 10 10 9 8 9 10 10 10 10 10 10 11 11 12 12 10 16 16 17 17 17 17 16 12 12 12 13 13 13 14 14 13 13 13 13 12 11 11 14 14 13 13 10 10 10 11 13 12
5 4 4 4 4 5 5 5 3 3 4 2 3 3 2 4 3 4 4 4 4 5 6 5 7 7 7 7 7 8 8 9 9 9 10 10 10 10 11 10 9 9 9 9 10 10 11 12 12 12 12 14 13 16 17 18 18 17 17 13 12 12 12 12 13 13 13 12 13 13 13 13 12 13 14 18 16 11 10 10 10 10 13 13 14
2 3 4 2 3 4 4 2 3 3 2 3 3 2 2 4 5 5 4 5 5 6 7 7 7 8 8 8 8 8 9 9 9 10 10 10 11 11 10 8 9 9 10 10 10 10 10 11 13 13 13 13 13 15 16 18 17 18 15 12 13 12 11 13 13 13 12 13 13 13 14 12 12 13 15 16 15 15 11 10 11 13 14 13 14
3 2 2 2 1 1 1 1 2 3 3 3 4 4 4 6 6 6 6 7 7 8 7 7 8 8 8 8 8 8 9 9 9 10 11 11 10 9 9 9 9 10 11 11 11 11 11 11 12 13 12 14 14 15 17 17 17 18 16 13 12 12 12 12 12 13 12 12 15 23 20 14 13 13 16 16 14 15 12 12 13 13 12 14 14
1 2 1 1 0 0 0 1 3 6 7 6 6 6 6 6 6 7 6 7 8 8 8 8 9 8 8 8 8 9 9 9 10 10 10 11 11 10 10 9 9 10 11 11 11 11 12 11 11 12 18 18 16 16 18 18 19 18 15 12 12 11 12 12 11 12 12 11 12 15 24 20 16 15 16 14 16 16 12 11 14 13 13 14 14
2 2 3 1 0 2 5 6 5 6 6 6 5 5 6 6 7 7 7 8 9 9 9 8 8 8 8 8 8 8 9 9 10 11 10 10 9 9 10 10 10 9 10 10 11 11 13 12 11 13 13 14 15 15 16 19 18 18 19 14 11 12 12 11 12 11 11 11 12 12 14 18 20 19 15 14 16 18 13 11 13 12 13 16 12
1 0 0 1 3 2 3 5 6 6 6 5 4 5 6 7 7 7 9 9 9 8 8 8 8 8 9 9 8 8 10 10 9 10 10 11 10 10 11 11 11 10 11 11 13 13 13 13 12 12 12 13 12 14 15 18 17 18 19 17 11 12 11 10 11 11 11 11 11 11 10 14 16 16 15 16 16 17 17 13 13 13 15 14 8
2 3 3 3 4 5 5 7 6 6 5 5 4 5 6 7 7 9 10 8 8 8 8 8 8 9 9 9 9 9 9 9 9 9 10 10 10 10 10 11 10 11 12 13 13 13 12 12 12 11 12 13 14 19 16 17 18 18 18 20 13 13 12 10 11 12 11 10 10 9 9 11 13 13 15 17 18 17 19 13 14 20 19 14 11
2 2 3 2 4 5 6 7 6 6 5 5 5 6 7 7 8 10 9 8 8 8 8 8 8 8 9 9 9 9 9 7 9 9 10 11 10 10 11 10 11 11 12 14 14 13 13 13 12 11 10 11 11 13 17 16 18 18 18 18 19 15 14 11 10 12 12 11 8 8 8 11 13 15 16 17 16 18 15 12 18 20 18 18 16
5 5 5 3 4 5 6 6 6 6 6 5 5 7 7 8 10 9 8 8 8 8 8 8 9 9 8 9 9 10 9 9 10 9 10 11 11 11 11 10 10 11 11 12 12 12 11 12 12 12 10 9 9 10 13 18 17 18 18 19 19 19 16 11 11 11 11 10 9 8 8 12 14 14 15 15 16 16 11 15 15 17 17 19 14
4 6 5 4 5 6 7 7 7 7 6 6 5 6 8 9 9 7 8 8 8 8 8 8 8 8 9 8 9 9 10 10 10 9 10 10 12 11 11 10 10 10 11 11 12 11 10 11 12 12 11 9 9 10 11 13 17 17 18 17 17 18 17 17 13 9 11 9 9 13 14 13 13 13 15 16 15 16 16 14 16 16 13 4 5
4 5 5 4 5 5 6 7 8 7 6 6 6 6 9 9 8 7 7 8 9 9 9 9 9 9 9 9 10 11 11 11 11 9 9 9 10 11 11 11 11 10 10 11 12 11 11 10 9 10 10 9 10 10 11 11 12 14 14 16 18 17 18 19 17 13 16 16 15 14 14 13 11 10 9 7 6 5 6 6 6 7 6 7 5
5 5 4 5 5 6 7 7 8 7 6 6 7 7 7 7 7 7 7 8 8 8 10 10 10 9 9 9 10 10 10 11 10 8 9 9 9 9 10 10 10 10 10 11 12 11 11 10 9 8 8 10 10 10 11 11 9 8 8 8 10 11 14 16 12 9 9 9 8 6 4 3 4 6 6 7 8 9 8 7 7 7 8 9 8
4 5 4 4 5 6 7 7 7 7 6 6 7 7 7 8 7 7 7 8 8 9 10 10 11 10 10 10 10 16 15 10 10 9 10 10 9 9 10 11 10 10 11 12 12 10 9 7 6 7 8 10 11 11 11 11 9 7 7 7 7 6 6 6 7 6 6 5 4 7 9 7 8 8 8 8 7 7 9 9 9 9 10 11 15
5 5 4 5 5 6 7 8 8 7 7 7 8 8 7 8 8 8 8 8 9 11 11 12 11 10 10 10 10 10 9 10 10 10 9 9 10 10 11 11 12 9 11 9 8 8 7 5 6 7 8 10 10 10 12 4 9 11 11 9 6 6 6 6 7 8 4 5 7 6 7 7 7 9 9 9 9 9 8 9 13 11 10 11 10
4 4 4 5 5 6 7 8 8 6 7 8 8 8 8 8 8 8 8 9 10 10 12 11 9 9 10 10 10 9 9 9 10 10 11 11 11 14 13 11 12 18 7 5 3 3 3 6 8 8 7 10 12 14 16 17 19 18 19 16 14 11 10 8 8 13 8 7 7 7 7 9 10 10 8 7 8 9 10 10 8 9 10 10 10
5 5 6 6 7 7 7 8 8 7 6 7 9 8 9 9 9 8 9 9 10 9 11 11 10 10 11 12 10 10 9 9 9 9 9 11 11 8 13 17 17 17 5 4 3 2 6 8 8 11 10 14 19 22 23 21 18 17 15 15 14 13 11 11 12 9 6 7 7 7 6 6 7 7 6 7 9 11 10 10 9 9 10 11 11
Wind_Direction
264 210 185 197 209 209 202 195 200 204 209 209 209 212 211 210 207 216 212 204 202 197 193 193 200 208 214 216 227 231 228 227 231 232 231 233 233 231 231 225 225 228 231 215 220 225 232 240 240 247 236 228 232 238 241 242 234 226 243 226 249 273 277 216 230 209 267 289 275 269 285 257 255 254 243 233 227 229 225 216 219 210 210 209 208
306 296 300 201 189 195 197 196 190 196 218 210 209 210 211 210 209 216 215 203 206 204 200 198 203 202 200 209 213 226 227 224 233 230 231 238 237 238 239 234 231 231 233 221 226 221 233 236 235 246 239 233 235 241 246 235 230 219 217 262 205 239 255 244 224 124 230 234 282 308 295 283 264 270 265 246 231 228 225 221 216 218 219 216 205
263 262 276 288 274 226 197 195 194 197 200 203 211 210 211 210 210 211 211 206 209 208 198 208 209 210 204 216 213 234 235 230 236 241 235 240 240 236 237 237 231 234 233 227 225 227 232 302 348 325 299 268 250 242 235 235 218 217 205 222 253 218 244 250 224 189 240 192 141 347 298 325 330 322 271 252 244 235 224 224 219 221 228 219 204
235 234 239 238 218 206 195 195 205 201 183 190 205 213 215 215 211 208 209 207 209 208 208 214 212 207 216 231 225 221 235 231 230 235 234 235 240 232 234 231 230 237 236 233 232 230 66 97 218 248 254 248 246 249 235 230 219 212 209 210 202 258 236 255 216 196 206 165 263 229 242 166 314 299 311 297 244 244 231 227 222 226 231 225 194
227 234 234 238 213 195 195 208 190 192 196 202 202 202 201 208 209 204 203 204 207 209 212 209 188 187 188 192 174 269 284 235 218 241 229 230 240 232 234 225 228 233 236 234 231 132 181 205 225 241 253 256 238 238 239 233 224 217 208 206 192 216 241 242 250 205 211 207 204 182 293 267 231 270 337 287 317 303 231 236 235 236 232 220 215
215 225 224 214 210 209 208 206 203 242 224 223 212 219 214 219 211 209 207 205 210 213 208 184 192 186 171 187 214 224 236 222 224 231 228 222 228 237 245 224 222 228 230 230 195 188 207 207 214 226 235 234 222 232 242 245 238 226 211 206 210 204 226 229 246 221 220 218 223 223 206 240 242 242 339 292 318 229 285 281 252 247 250 236 219
216 226 215 199 219 196 220 207 210 214 232 214 203 216 224 213 208 206 207 210 210 209 191 182 190 194 199 206 213 215 223 232 232 238 235 234 231 237 237 228 217 219 220 170 351 240 230 219 218 219 226 232 229 241 233 233 234 230 223 206 215 213 195 229 229 232 229 236 226 235 241 240 225 244 255 12 292 309 301 293 283 253 248 244 236
199 211 213 204 196 196 207 209 206 211 220 188 208 205 208 213 195 199 202 209 210 196 190 192 196 202 208 217 220 223 224 235 227 236 242 243 237 238 239 240 231 210 108 78 247 237 234 232 223 223 225 230 213 225 230 233 238 242 233 221 220 209 200 212 225 208 210 231 201 222 229 236 235 233 230 235 258 287 290 266 256 271 258 238 233
201 211 212 207 201 203 205 214 216 213 213 211 212 203 205 210 212 211 219 218 204 181 184 199 203 203 210 217 232 236 237 244 240 240 234 227 242 247 240 242 239 203 120 130 261 250 241 241 236 232 229 229 223 229 236 239 240 244 242 231 215 213 202 214 219 218 207 221 193 224 220 226 222 221 227 219 223 242 261 269 286 306 273 267 249
203 211 214 214 214 211 205 206 204 214 214 217 222 206 194 177 199 213 238 227 204 185 186 197 203 198 205 216 227 241 239 252 235 243 237 219 242 249 246 252 250 251 145 182 250 253 239 236 236 233 237 240 239 243 251 251 249 248 244 236 227 220 214 210 212 218 212 215 209 208 209 217 225 227 224 214 228 220 251 262 260 289 295 291 313
201 204 209 215 204 194 174 199 211 203 208 207 215 204 190 182 186 203 231 237 225 208 189 203 199 197 208 215 224 236 238 238 247 251 240 237 245 257 260 261 263 258 232 173 200 228 232 231 237 236 227 232 242 242 241 237 238 243 246 239 233 224 214 211 218 217 216 218 214 208 214 208 208 213 208 202 206 206 222 251 262 244 250 279 263
193 197 216 215 202 196 184 207 206 197 180 199 206 200 194 193 182 205 226 220 223 213 197 207 196 209 214 214 224 232 232 235 236 249 239 234 236 250 256 259 251 240 227 202 205 221 229 230 231 242 247 243 237 230 234 240 251 254 252 244 235 228 224 216 216 218 217 219 219 214 216 218 221 224 222 203 196 216 207 228 236 236 261 228 264
186 202 211 212 216 221 216 237 237 248 240 235 226 200 195 187 190 201 211 177 194 199 204 211 207 216 216 224 236 235 231 233 244 255 259 248 245 247 251 248 257 259 240 227 228 224 227 238 236 227 230 232 240 242 241 239 239 244 248 249 243 235 225 215 216 218 214 215 220 217 219 217 223 220 223 222 218 216 210 237 242 221 250 268 255
192 196 202 209 214 219 213 223 224 232 236 235 234 227 223 211 175 203 188 155 179 191 203 205 226 235 234 234 238 235 242 239 243 245 256 249 243 243 242 245 260 260 269 258 242 234 233 232 236 238 234 233 231 236 237 235 238 248 270 280 267 258 240 225 233 229 224 224 219 222 217 220 223 219 219 220 225 208 214 226 238 224 224 254 275
191 190 199 206 214 207 210 215 222 223 233 242 240 226 186 197 164 163 191 280 160 167 172 182 208 216 222 227 234 222 234 234 233 234 241 244 237 236 242 252 248 251 249 253 246 240 235 238 236 239 241 240 240 240 243 235 236 244 290 279 270 264 276 247 241 238 229 221 218 216 222 221 220 216 214 219 218 216 214 213 201 230 243 230 246
190 193 202 213 212 207 211 218 222 223 231 245 248 204 185 173 138 147 142 132 140 126 106 118 134 182 192 213 227 224 236 235 244 241 241 239 253 248 251 249 245 246 246 248 249 247 249 248 250 250 248 251 247 242 243 242 210 167 226 238 247 244 236 224 229 229 227 222 220 216 219 224 218 216 214 217 215 216 218 215 193 209 226 254 217
191 195 198 207 209 213 213 215 216 218 219 214 209 191 164 142 137 132 130 125 130 139 147 153 158 143 187 200 203 207 217 233 247 258 257 250 240 241 237 237 241 240 244 236 247 243 245 254 260 261 257 258 256 248 239 238 202 185 220 231 244 243 234 241 249 252 245 233 229 222 220 223 221 217 219 216 215 218 217 213 202 211 200 228 239
195 199 196 197 201 205 212 215 206 201 183 161 153 147 145 142 143 143 151 154 178 167 170 175 172 182 207 238 254 236 239 248 246 251 256 259 256 249 246 251 242 242 239 249 249 251 248 251 257 254 253 255 255 256 251 245 221 206 217 221 227 231 234 239 238 244 250 244 239 234 226 230 222 217 219 218 213 212 210 209 207 211 196 212 213
187 198 192 196 194 195 188 187 168 161 155 154 147 142 141 150 160 158 170 180 180 187 188 187 178 180 191 207 218 242 250 257 265 267 268 265 263 262 258 256 261 259 259 255 256 256 251 252 255 257 253 255 255 255 250 249 235 216 217 225 225 223 233 239 239 238 242 243 240 236 230 230 225 222 221 221 220 212 209 201 208 198 200 208 207
193 196 194 191 187 178 167 156 157 156 154 156 152 152 160 173 175 186 182 179 174 185 189 192 214 204 209 208 217 217 227 231 241 249 256 253 254 255 258 259 252 250 245 248 253 260 261 265 261 257 259 259 261 257 255 256 252 225 225 226 233 226 228 236 243 236 239 236 235 235 229 228 224 223 223 221 219 215 206 199 200 192 199 208 197
193 188 182 173 173 162 157 163 158 156 156 155 163 172 177 178 192 191 182 196 200 208 197 212 202 219 214 218 231 234 244 245 254 253 253 254 255 253 252 253 265 261 261 259 259 260 262 259 261 263 261 263 262 262 258 255 259 224 221 234 241 235 236 241 237 242 239 241 239 237 235 231 223 222 219 217 215 210 205 209 205 195 197 187 191
183 176 167 169 163 154 149 159 161 159 169 173 190 182 188 198 209 204 205 205 207 217 209 218 211 207 203 217 229 231 235 236 236 246 246 251 253 253 253 257 250 255 250 253 251 256 257 257 257 254 262 261 261 259 259 255 256 255 242 234 243 238 242 239 240 245 243 242 245 245 244 239 227 226 221 220 214 212 208 207 211 202 205 192 192
174 168 168 170 167 164 169 172 176 179 182 187 189 195 206 215 216 218 204 227 215 225 213 208 206 206 225 232 244 253 251 252 252 255 253 252 253 258 255 251 253 252 243 239 244 246 250 255 252 253 252 259 256 255 254 256 257 257 254 247 243 241 243 241 240 240 243 241 242 242 244 240 233 231 226 224 216 215 207 210 214 206 213 203 189
164 162 164 172 167 163 163 176 186 195 195 198 201 210 222 226 223 215 220 238 235 235 241 235 239 247 246 249 249 253 257 258 259 259 262 264 263 262 262 261 260 258 255 255 247 246 249 249 250 252 251 252 255 254 254 251 256 255 254 249 244 243 243 243 242 243 240 238 241 244 243 238 232 230 228 220 211 208 207 212 212 205 212 207 190
163 169 173 168 164 170 183 189 194 201 206 209 213 221 224 233 230 225 233 238 241 231 226 235 228 246 255 249 257 257 257 259 258 260 262 264 264 263 258 257 259 256 254 257 258 255 251 248 248 250 251 251 249 252 256 257 254 253 250 248 248 247 245 247 247 247 245 241 241 241 244 240 235 234 231 228 213 203 205 208 209 207 202 203 194
169 167 170 180 183 184 191 202 208 211 210 215 223 229 234 237 237 227 234 240 239 221 224 236 234 236 250 250 253 254 252 253 256 260 260 261 264 264 264 263 254 256 257 251 252 252 246 247 246 246 247 252 254 250 253 256 257 256 251 248 249 247 246 247 247 246 244 241 242 244 244 240 234 231 234 229 221 213 209 209 212 208 204 196 200
178 181 178 167 187 201 207 213 217 220 221 224 225 234 236 236 249 240 228 238 244 226 231 232 242 236 244 250 252 251 252 255 258 261 263 263 262 263 265 267 266 259 255 256 253 251 249 249 251 250 250 251 255 257 256 258 256 256 255 252 250 247 244 247 245 244 243 242 240 241 244 240 235 231 230 228 222 220 218 218 213 211 203 199 201
160 166 181 195 204 213 221 228 232 236 238 245 244 243 245 247 259 268 249 238 245 233 245 245 245 250 246 253 255 262 269 267 265 264 265 265 265 265 265 265 266 266 262 256 257 257 256 253 254 250 252 254 256 259 258 258 257 257 258 256 252 251 250 246 246 244 243 243 241 240 240 241 237 233 231 229 222 219 217 221 219 215 207 203 204
189 201 204 206 213 221 229 234 238 249 255 253 254 258 263 266 264 265 267 258 248 241 254 254 252 252 255 257 271 278 278 278 273 270 266 264 264 263 265 264 261 260 259 259 258 258 260 259 256 254 256 257 259 257 255 254 257 258 258 258 256 254 252 252 250 247 245 243 241 239 240 241 241 238 234 230 221 219 217 217 218 213 211 209 209
200 207 212 220 231 244 259 285 290 277 274 276 276 274 267 262 267 264 260 261 241 244 248 256 255 257 264 271 271 273 276 278 277 271 266 265 265 265 262 262 261 258 258 259 261 259 258 258 261 260 257 259 254 252 256 257 255 259 254 254 254 252 250 249 251 253 250 245 243 239 237 240 245 247 246 242 235 222 212 212 216 209 212 211 211
216 226 238 263 281 286 286 284 280 278 267 269 266 268 268 262 259 265 261 262 233 248 244 246 261 262 264 266 270 274 279 277 273 272 271 268 266 265 265 263 264 262 261 260 259 261 259 259 261 263 262 258 256 255 257 253 251 255 260 262 261 259 254 251 248 249 252 248 244 239 236 238 242 248 245 245 238 234 231 219 211 206 205 207 210
220 246 288 284 280 281 273 257 253 251 252 251 254 254 262 262 260 257 266 291 247 240 252 257 253 262 265 270 274 279 277 274 273 270 269 268 267 266 266 265 264 265 262 260 261 259 261 263 264 262 262 257 257 259 255 252 251 252 256 260 261 261 257 255 252 249 249 250 248 244 237 233 234 235 237 239 240 238 236 233 226 213 207 206 205
260 272 269 253 244 241 245 255 257 256 251 246 245 257 253 260 277 281 306 286 277 256 259 265 268 267 271 276 280 277 273 272 268 268 269 271 269 268 267 266 263 263 265 262 261 262 262 261 264 266 265 262 261 259 256 254 251 248 249 250 252 256 258 255 253 249 247 246 246 245 242 234 231 231 236 237 238 237 234 232 232 231 224 216 214
237 230 237 257 265 257 251 248 253 257 263 288 277 250 270 279 267 272 272 273 277 284 256 265 269 275 281 282 279 274 270 268 269 270 271 270 270 267 267 266 268 271 268 268 266 264 264 264 261 261 261 261 256 260 257 256 252 248 247 249 256 250 254 254 252 250 247 244 240 241 239 237 230 228 229 234 235 237 238 232 231 230 231 233 224
233 248 249 242 248 273 280 275 277 284 276 279 296 239 256 280 275 286 289 286 273 266 275 272 283 286 284 279 275 270 270 271 271 271 271 270 270 272 271 271 270 270 269 267 268 269 266 262 264 263 265 264 259 259 256 254 252 248 247 250 254 252 250 249 248 247 246 244 242 239 237 236 232 226 226 229 233 235 238 235 224 223 234 239 246
221 210 241 237 244 252 267 278 282 298 305 287 278 302 286 278 299 276 285 280 274 280 283 289 284 281 278 276 275 276 276 276 275 274 272 273 272 271 274 276 276 271 267 267 266 264 268 269 266 266 266 266 263 256 254 254 253 249 245 249 252 249 248 249 248 245 242 241 242 239 239 237 232 232 230 226 228 231 232 229 222 206 230 234 235
252 223 251 276 255 261 263 261 299 292 287 290 274 283 291 309 313 303 307 303 307 296 286 281 280 278 277 276 274 274 273 273 273 273 273 273 274 275 275 273 273 273 273 272 270 269 270 269 269 266 266 267 267 262 254 251 249 246 245 249 250 250 247 249 249 247 244 242 239 236 237 237 233 233 233 228 222 227 227 222 215 211 222 227 231
260 265 239 271 294 277 283 233 309 316 293 305 319 319 332 323 311 309 310 302 294 284 277 275 273 271 270 271 270 268 270 272 275 274 275 275 273 274 274 276 275 278 277 277 277 276 272 268 268 269 265 269 269 265 259 254 248 243 239 247 247 248 247 246 249 247 243 238 234 237 238 238 239 237 233 226 211 219 224 216 204 211 215 225 227
314 273 252 164 76 208 206 335 355 339 323 331 331 334 322 299 293 292 288 284 277 274 274 270 269 268 269 269 270 270 270 272 274 275 276 277 278 280 283 282 276 274 275 277 276 276 276 272 268 268 271 268 271 271 265 257 249 241 236 239 242 246 251 248 245 246 243 240 238 235 238 236 235 238 231 219 209 216 217 206 208 216 219 224 226
26 102 190 183 238 15 359 346 327 299 298 303 310 320 302 289 283 282 282 277 274 271 271 272 271 272 272 272 271 271 273 274 277 279 280 278 281 284 283 283 280 277 279 280 281 278 279 278 275 273 273 274 273 272 267 258 246 239 231 232 237 237 240 245 246 247 245 242 238 236 238 238 240 243 236 220 210 207 210 198 206 218 219 227 222
186 181 83 6 348 352 283 273 267 274 286 294 300 296 285 277 277 279 274 271 271 273 273 272 272 273 272 272 273 270 273 276 276 279 282 285 285 285 286 285 285 284 283 282 281 280 278 276 273 269 268 268 265 268 267 257 249 239 234 225 232 234 241 246 253 250 246 244 238 232 235 234 232 236 236 233 221 212 211 203 200 214 223 225 207
297 304 305 289 287 282 277 284 274 271 281 284 289 282 277 281 282 277 272 275 278 277 275 274 273 274 275 276 275 276 274 278 281 283 286 287 286 285 283 284 284 283 283 281 279 278 277 277 275 268 265 265 264 264 268 265 253 242 235 227 228 235 234 242 245 249 248 243 236 231 232 225 220 221 226 227 223 218 214 207 201 212 222 222 220
259 302 290 268 283 284 281 278 289 295 293 292 297 287 282 285 283 280 287 291 290 287 284 281 280 279 279 280 280 281 284 284 286 285 287 288 289 288 285 283 282 283 281 280 281 282 283 281 279 276 271 266 266 269 265 262 257 244 234 229 228 232 231 227 240 250 252 249 239 233 229 221 215 217 220 222 221 217 209 206 209 218 216 218 222
266 246 263 304 304 291 289 292 298 303 300 300 301 289 290 288 287 293 297 296 293 290 286 286 286 282 282 285 289 289 287 286 285 288 287 286 287 286 285 282 281 281 284 284 285 282 281 283 283 282 278 271 269 268 268 258 254 245 235 230 229 229 229 228 231 241 246 249 244 230 224 220 218 213 213 217 217 213 211 213 212 219 216 217 218
290 297 316 325 298 290 295 299 296 297 302 300 297 291 296 295 293 302 301 301 298 295 292 285 282 281 285 286 287 288 288 289 288 287 288 288 287 288 288 287 286 284 281 284 283 283 281 281 284 283 282 281 279 281 276 264 251 243 239 236 231 229 229 228 232 237 243 244 241 228 223 217 215 209 210 213 215 214 211 211 215 223 227 224 173
326 318 320 305 305 301 293 291 298 304 312 310 304 296 298 291 294 296 300 300 301 295 290 288 285 287 287 291 292 292 290 288 286 281 278 280 285 292 293 292 287 282 284 286 287 283 279 274 272 274 279 282 284 284 281 271 266 260 246 233 231 227 229 227 225 232 236 238 232 225 223 224 217 211 204 204 211 202 177 174 160 130 109 140 135
304 292 305 312 316 316 312 310 306 310 311 309 304 292 283 290 297 300 302 305 302 294 295 293 290 289 292 292 294 292 294 291 286 290 287 287 286 287 287 286 285 288 290 287 285 283 283 279 274 282 285 287 285 286 281 275 256 244 246 236 225 229 232 234 230 227 238 246 257 254 224 174 150 170 153 115 110 120 126 125 107 106 111 110 113
266 282 297 310 320 312 309 310 308 308 306 305 305 304 301 302 302 305 306 307 303 303 299 296 296 298 296 296 292 295 297 294 293 291 292 292 287 280 282 281 286 285 286 285 285 280 280 285 297 296 297 291 290 288 280 278 280 274 267 243 232 222 214 211 219 215 209 207 167 112 105 106 109 107 113 112 104 99 106 108 105 105 106 108 110
310 312 330 315 306 310 308 312 307 304 306 308 308 307 307 307 308 309 310 306 303 303 301 296 295 293 291 291 288 287 286 288 289 287 277 273 280 286 277 277 271 262 266 273 281 292 302 319 299 285 289 293 283 278 276 310 304 302 295 291 262 226 212 201 202 182 153 136 130 130 119 116 116 120 117 116 114 104 88 99 109 109 107 108 111
290 302 314 317 318 313 311 307 305 305 308 310 307 308 310 309 309 311 310 308 305 303 301 295 293 291 289 291 288 284 280 278 281 285 289 285 260 252 260 268 285 283 300 99 151 255 311 309 297 277 240 253 269 270 286 297 296 296 291 271 259 248 199 197 174 163 154 147 146 137 141 135 132 129 125 120 118 114 110 103 94 92 99 102 101
327 337 328 323 313 311 312 310 310 311 305 309 312 312 315 313 311 309 308 301 300 296 296 293 292 289 288 288 284 281 275 271 274 279 284 292 302 276 247 254 253 271 279 175 121 232 288 305 308 298 290 268 269 276 279 286 293 288 278 274 259 243 225 191 155 143 145 148 142 140 134 116 119 116 102 114 114 111 108 100 95 92 95 100 100